GW5517 Weather Reports


time (UTC)temp
C
wind
direction
speed
KPH
gust
KPH
rain 1hr
cm
rain 24hr
cm
rain mn
cm
humidity
%
barometer
mb
20260503173107 15 352 12.9 29.0 0.00 0.08 0.00 47 1015.8
20260503171548 15 307 11.3 25.7 0.00 0.08 0.00 45 1016.0
20260503081538 8 234 0.0 4.8 0.00 0.33 0.00 88 1012.1
20260503071543 8 273 1.6 4.8 0.00 0.33 0.00 88 1011.7
20260503054545 10 0 1.6 3.2 0.00 0.33 0.00 89 1011.3
20260503053041 10 244 0.0 4.8 0.00 0.33 0.00 89 1011.4
20260503051539 10 232 1.6 6.4 0.00 0.33 0.00 88 1011.5
20260503050047 10 242 1.6 4.8 0.00 0.33 0.00 88 1011.2
20260503044544 10 236 1.6 4.8 0.00 0.33 0.00 89 1011.4
20260503043044 10 246 1.6 4.8 0.00 0.33 0.00 87 1011.4
20260503041540 11 252 1.6 6.4 0.00 0.33 0.00 87 1011.4
20260503040053 11 235 1.6 4.8 0.00 0.33 0.00 87 1011.3
20260503034559 11 254 1.6 4.8 0.00 0.33 0.33 87 1011.2
20260503033046 11 225 3.2 6.4 0.00 0.33 0.33 84 1011.3
20260503031545 11 242 1.6 4.8 0.00 0.33 0.33 86 1011.3
20260503030052 11 237 1.6 4.8 0.00 0.33 0.33 89 1011.4
20260503024551 11 244 1.6 4.8 0.00 0.33 0.33 88 1011.2
20260503023045 11 0 0.0 4.8 0.00 0.33 0.33 89 1011.2
20260503021545 11 254 1.6 4.8 0.00 0.33 0.33 88 1011.2
20260503020046 11 235 1.6 3.2 0.00 0.33 0.33 86 1011.3
20260503014545 12 277 0.0 3.2 0.00 0.33 0.33 86 1011.3
20260503013040 12 246 1.6 6.4 0.00 0.33 0.33 84 1011.3
20260503011535 13 10 0.0 6.4 0.00 0.33 0.33 81 1010.8
20260503010045 13 28 3.2 9.7 0.00 0.33 0.33 80 1010.6
20260503004543 12 37 6.4 17.7 0.00 0.33 0.33 84 1010.6
20260503003043 12 242 1.6 3.2 0.00 0.33 0.33 84 1010.3
20260503001535 13 261 1.6 9.7 0.00 0.33 0.33 79 1010.3
20260503000045 13 281 6.4 12.9 0.00 0.33 0.33 81 1010.1
20260502234543 12 240 1.6 8.0 0.00 0.36 0.33 87 1010.2
20260502233045 12 258 1.6 6.4 0.00 0.36 0.33 88 1010.0
20260502231555 13 269 1.6 4.8 0.00 0.36 0.33 86 1009.6
20260502230047 13 0 1.6 8.0 0.00 0.36 0.33 83 1009.4
20260502224544 13 341 3.2 6.4 0.00 0.36 0.33 82 1009.6
20260502223043 13 5 1.6 6.4 0.00 0.36 0.33 83 1009.7
20260502221536 13 334 3.2 8.0 0.00 0.36 0.33 82 1009.8
20260502220050 13 19 3.2 6.4 0.00 0.36 0.33 82 1009.9
20260502214545 13 30 1.6 6.4 0.00 0.36 0.33 82 1009.8
20260502213045 13 360 3.2 8.0 0.00 0.36 0.33 81 1009.6
20260502211545 13 344 3.2 6.4 0.00 0.36 0.33 82 1009.7
20260502210038 13 338 3.2 6.4 0.00 0.36 0.33 83 1009.7
20260502204544 13 346 4.8 11.3 0.00 0.36 0.33 83 1009.5
20260502203049 13 5 4.8 9.7 0.00 0.36 0.33 83 1009.5
20260502201545 13 360 8.0 12.9 0.00 0.36 0.33 82 1009.7
20260502200038 13 42 11.3 17.7 0.00 0.36 0.33 83 1009.6
20260502194534 12 352 6.4 14.5 0.00 0.36 0.33 83 1009.7
20260502193043 12 42 6.4 16.1 0.00 0.36 0.33 83 1010.0
20260502191543 12 29 9.7 19.3 0.00 0.36 0.33 81 1010.4
20260502190039 12 14 11.3 17.7 0.03 0.36 0.33 82 1010.2
20260502184545 12 86 9.7 17.7 0.03 0.36 0.33 88 1010.4
20260502183035 12 49 8.0 19.3 0.03 0.36 0.33 89 1010.4
20260502181544 12 15 8.0 17.7 0.05 0.36 0.33 90 1011.0
20260502180106 12 346 11.3 17.7 0.05 0.33 0.30 90 1010.8